Time,TemperatureF,DewpointF,PressureIn,WindDirection,WindDirectionDegrees,WindSpeedMPH,WindSpeedGustMPH,Humidity,HourlyPrecipIn,Conditions,Clouds,dailyrainin,SoftwareType,DateUTC
2015-05-05 07:42:00,77.0,72.0,29.96,SE,125,0.0,0.0,84,-99.99,,,-99.99,,2015-05-05 12:42:00,
2015-05-05 08:12:00,79.0,73.0,29.96,ENE,69,0.0,0.0,82,-99.99,,,-99.99,,2015-05-05 13:12:00,
2015-05-05 08:22:00,80.0,73.0,29.96,SE,129,0.0,7.0,80,-99.99,,,-99.99,,2015-05-05 13:22:00,
2015-05-05 08:31:00,80.0,73.0,29.96,SE,129,0.0,7.0,80,-99.99,,,-99.99,,2015-05-05 13:31:00,
2015-05-05 08:42:00,80.0,73.0,29.96,South,182,3.0,11.0,80,-99.99,,,-99.99,,2015-05-05 13:42:00,
2015-05-05 08:52:00,81.0,73.0,29.96,SSE,166,5.0,13.0,76,-99.99,,,-99.99,,2015-05-05 13:52:00,
2015-05-05 09:11:00,81.0,72.0,29.96,SE,143,7.0,13.0,75,-99.99,,,-99.99,,2015-05-05 14:11:00,
2015-05-05 09:21:00,80.0,72.0,29.97,SSE,150,8.0,12.0,77,-99.99,,,-99.99,,2015-05-05 14:21:00,
2015-05-05 09:41:00,80.0,73.0,29.97,South,173,7.0,12.0,79,-99.99,,,-99.99,,2015-05-05 14:41:00,
2015-05-05 09:52:00,81.0,72.0,29.97,South,180,7.0,15.0,75,-99.99,,,-99.99,,2015-05-05 14:52:00,
2015-05-05 10:11:00,83.0,72.0,29.97,South,171,8.0,13.0,70,-99.99,,,-99.99,,2015-05-05 15:11:00,
2015-05-05 10:21:00,83.0,72.0,29.97,South,171,8.0,13.0,70,-99.99,,,-99.99,,2015-05-05 15:21:00,
2015-05-05 10:42:00,83.0,73.0,29.97,SSE,154,7.0,14.0,71,-99.99,,,-99.99,,2015-05-05 15:42:00,
2015-05-05 10:52:00,84.0,72.0,29.98,SE,137,8.0,13.0,68,-99.99,,,-99.99,,2015-05-05 15:52:00,
2015-05-05 11:12:00,83.0,72.0,29.97,SSE,157,8.0,18.0,70,-99.99,,,-99.99,,2015-05-05 16:12:00,
2015-05-05 11:21:00,84.0,72.0,29.97,SSE,155,9.0,18.0,67,-99.99,,,-99.99,,2015-05-05 16:21:00,
2015-05-05 11:32:00,84.0,72.0,29.97,SSE,155,9.0,18.0,67,-99.99,,,-99.99,,2015-05-05 16:32:00,
2015-05-05 11:42:00,84.0,71.0,29.97,SSE,147,10.0,18.0,66,-99.99,,,-99.99,,2015-05-05 16:42:00,
2015-05-05 11:52:00,85.0,71.0,29.96,SSE,148,7.0,12.0,64,-99.99,,,-99.99,,2015-05-05 16:52:00,
2015-05-05 12:12:00,85.0,72.0,29.96,ESE,120,10.0,19.0,65,-99.99,,,-99.99,,2015-05-05 17:12:00,
2015-05-05 12:23:00,85.0,72.0,29.96,SE,142,10.0,15.0,65,-99.99,,,-99.99,,2015-05-05 17:23:00,
2015-05-05 12:42:00,84.0,71.0,29.96,ESE,108,12.0,19.0,65,-99.99,,,-99.99,,2015-05-05 17:42:00,
2015-05-05 12:52:00,85.0,72.0,29.95,SE,140,13.0,20.0,65,-99.99,,,-99.99,,2015-05-05 17:52:00,
2015-05-05 13:12:00,85.0,71.0,29.95,SSE,167,11.0,22.0,64,-99.99,,,-99.99,,2015-05-05 18:12:00,
2015-05-05 13:22:00,85.0,71.0,29.95,ESE,107,10.0,16.0,64,-99.99,,,-99.99,,2015-05-05 18:22:00,
2015-05-05 13:42:00,85.0,71.0,29.94,ESE,113,9.0,18.0,64,-99.99,,,-99.99,,2015-05-05 18:42:00,
2015-05-05 13:52:00,85.0,70.0,29.93,SE,127,8.0,15.0,62,-99.99,,,-99.99,,2015-05-05 18:52:00,
2015-05-05 14:12:00,86.0,70.0,29.93,ESE,106,10.0,20.0,59,-99.99,,,-99.99,,2015-05-05 19:12:00,
2015-05-05 14:22:00,86.0,69.0,29.93,SE,134,13.0,19.0,58,-99.99,,,-99.99,,2015-05-05 19:22:00,
2015-05-05 14:42:00,86.0,69.0,29.92,East,98,11.0,20.0,58,-99.99,,,-99.99,,2015-05-05 19:42:00,
2015-05-05 14:52:00,85.0,71.0,29.92,SE,145,9.0,19.0,63,-99.99,,,-99.99,,2015-05-05 19:52:00,
2015-05-05 15:11:00,84.0,72.0,29.92,SE,140,8.0,16.0,67,-99.99,,,-99.99,,2015-05-05 20:11:00,
2015-05-05 15:21:00,83.0,72.0,29.92,ESE,116,7.0,14.0,70,-99.99,,,-99.99,,2015-05-05 20:21:00,
2015-05-05 15:42:00,83.0,73.0,29.92,SE,145,7.0,14.0,71,-99.99,,,-99.99,,2015-05-05 20:42:00,
2015-05-05 15:52:00,82.0,72.0,29.92,SE,141,3.0,14.0,72,-99.99,,,-99.99,,2015-05-05 20:52:00,
2015-05-05 16:12:00,82.0,72.0,29.91,ESE,115,8.0,13.0,71,-99.99,,,-99.99,,2015-05-05 21:12:00,
2015-05-05 16:21:00,82.0,72.0,29.89,ESE,123,8.0,14.0,72,-99.99,,,-99.99,,2015-05-05 21:21:00,
2015-05-05 16:42:00,82.0,72.0,29.90,SE,131,7.0,19.0,72,-99.99,,,-99.99,,2015-05-05 21:42:00,
2015-05-05 16:52:00,82.0,72.0,29.90,SE,137,4.0,15.0,72,-99.99,,,-99.99,,2015-05-05 21:52:00,
2015-05-05 17:11:00,82.0,72.0,29.90,SSE,150,6.0,12.0,71,-99.99,,,-99.99,,2015-05-05 22:11:00,
2015-05-05 17:21:00,83.0,73.0,29.90,SE,128,7.0,15.0,71,-99.99,,,-99.99,,2015-05-05 22:21:00,
2015-05-05 17:41:00,83.0,72.0,29.90,ESE,123,4.0,14.0,70,-99.99,,,-99.99,,2015-05-05 22:41:00,
2015-05-05 17:52:00,83.0,72.0,29.90,SE,124,7.0,13.0,70,-99.99,,,-99.99,,2015-05-05 22:52:00,
2015-05-05 18:11:00,82.0,71.0,29.90,ESE,118,8.0,13.0,70,-99.99,,,-99.99,,2015-05-05 23:11:00,
2015-05-05 18:22:00,83.0,73.0,29.90,East,80,8.0,13.0,71,-99.99,,,-99.99,,2015-05-05 23:22:00,
2015-05-05 18:42:00,82.0,72.0,29.91,ESE,111,8.0,15.0,72,-99.99,,,-99.99,,2015-05-05 23:42:00,
2015-05-05 18:52:00,82.0,72.0,29.91,ESE,105,5.0,14.0,73,-99.99,,,-99.99,,2015-05-05 23:52:00,
2015-05-05 19:11:00,82.0,74.0,29.91,ESE,104,11.0,16.0,76,-99.99,,,-99.99,,2015-05-06 00:11:00,
2015-05-05 19:22:00,81.0,73.0,29.91,East,85,8.0,20.0,77,-99.99,,,-99.99,,2015-05-06 00:22:00,
2015-05-05 19:41:00,80.0,72.0,29.91,East,95,11.0,16.0,78,-99.99,,,-99.99,,2015-05-06 00:41:00,
2015-05-05 19:52:00,80.0,73.0,29.91,ESE,107,8.0,13.0,79,-99.99,,,-99.99,,2015-05-06 00:52:00,
2015-05-05 20:11:00,80.0,72.0,29.92,ESE,106,9.0,14.0,77,-99.99,,,-99.99,,2015-05-06 01:11:00,
2015-05-05 20:42:00,79.0,72.0,29.93,East,94,5.0,14.0,80,-99.99,,,-99.99,,2015-05-06 01:42:00,
2015-05-05 20:52:00,79.0,72.0,29.93,SE,130,1.0,13.0,80,-99.99,,,-99.99,,2015-05-06 01:52:00,
2015-05-05 21:11:00,79.0,73.0,29.94,ESE,105,2.0,10.0,81,-99.99,,,-99.99,,2015-05-06 02:11:00,
2015-05-05 21:31:00,79.0,73.0,29.94,East,93,1.0,8.0,81,-99.99,,,-99.99,,2015-05-06 02:31:00,
2015-05-05 21:42:00,79.0,73.0,29.95,ESE,102,0.0,9.0,81,-99.99,,,-99.99,,2015-05-06 02:42:00,
2015-05-05 22:12:00,79.0,72.0,29.96,East,88,0.0,8.0,80,-99.99,,,-99.99,,2015-05-06 03:12:00,
2015-05-05 22:21:00,79.0,72.0,29.96,East,88,0.0,8.0,80,-99.99,,,-99.99,,2015-05-06 03:21:00,
2015-05-05 22:31:00,78.0,71.0,29.96,ESE,109,1.0,8.0,80,-99.99,,,-99.99,,2015-05-06 03:31:00,
2015-05-05 22:42:00,78.0,71.0,29.96,ESE,109,1.0,8.0,80,-99.99,,,-99.99,,2015-05-06 03:42:00,
2015-05-05 22:51:00,78.0,71.0,29.96,ESE,109,1.0,8.0,80,-99.99,,,-99.99,,2015-05-06 03:51:00,
2015-05-05 23:02:00,78.0,71.0,29.96,ESE,109,1.0,8.0,80,-99.99,,,-99.99,,2015-05-06 04:02:00,